Flag for United Kingdom Weather past 2 weeks in Brighton, England, United Kingdom

Now
59 °F

Drizzle. Broken clouds.


Feels Like: 56 °F
Forecast: 56 / 62 °F
Wind: 14 mph from Southwest

Location: Shoreham Airport

Current Time: Oct 23, 2014 at 6:30:25 PM

Latest Report: Oct 23, 2014 at 5:50 PM


Visibility: 3 mi

Pressure: 30.07 "Hg

Humidity: 94%

Dew point: 57 °F

Location of BrightonLocation

Historic Weather in Brighton — Graph

°F

Brighton temperature yesterday

Maximum temperature yesterday: 55 °F (at 12:20 PM)
Minimum temperature yesterday: 45 °F (at 7:50 AM)
Average temperature yesterday: 53 °F

Past Weeks' High & Low Weather Summary

 TemperatureHumidityPressure
High66 °F (Oct 18, 11:50 AM)100% (Oct 11, 8:50 AM)30.30 "Hg (Oct 11, 8:50 AM)
Low45 °F (Oct 22, 7:50 AM)51% (Oct 21, 1:50 PM)29.39 "Hg (Oct 8, 5:20 PM)
Average58 °F83%29.81 "Hg
* Reported Oct 8 5:20 PM — Oct 23 5:20 PM, Brighton, Weather by CustomWeather, © 2014

Note: Actual official high and low records may vary slightly from our data, if they occured in-between our weather recording intervals... More about our weather records

Advertising

Brighton weather history for previous 24 hours

 ConditionsComfort  
Time TempWeatherWind HumidityBarometerVisibility
5:20 PM
Oct 23
59 °FDrizzle. Broken clouds.14 mph94%30.09 "Hg3 mi
4:50 PM59 °FDrizzle. Broken clouds.15 mph94%30.09 "Hg4 mi
4:20 PM59 °FDrizzle. Fog.16 mph94%30.09 "Hg3 mi
3:50 PM57 °FDrizzle. Fog.14 mph100%30.09 "Hg1 mi
3:20 PM59 °FDrizzle. Fog.15 mph94%30.12 "Hg1 mi
2:50 PM57 °FDrizzle. Partly sunny.16 mph94%30.12 "Hg1 mi
2:20 PM57 °FDrizzle. Partly sunny.15 mph94%30.12 "Hg4 mi
1:50 PM57 °FDrizzle. Broken clouds.12 mph94%30.12 "Hg2 mi
1:20 PM59 °FPartly sunny.16 mph82%30.12 "Hg4 mi
12:50 PM59 °FDrizzle. Broken clouds.15 mph88%30.15 "Hg6 mi
12:20 PM57 °FDrizzle. Broken clouds.15 mph94%30.15 "Hg6 mi
11:50 AM57 °FDrizzle. Broken clouds.15 mph88%30.15 "Hg4 mi
11:20 AM59 °FBroken clouds.12 mph82%30.15 "HgN/A
10:50 AM57 °FPartly sunny.9 mph88%30.15 "HgN/A
10:20 AM55 °FPartly sunny.10 mph94%30.15 "HgN/A
9:50 AM57 °FDrizzle. Broken clouds.15 mph82%30.15 "Hg6 mi
9:20 AM57 °FPartly sunny.7 mph82%30.15 "HgN/A
8:50 AM57 °FPartly sunny.8 mph77%30.18 "HgN/A
8:20 AM55 °FPassing clouds.7 mph82%30.18 "HgN/A
7:50 AM55 °FPassing clouds.7 mph82%30.18 "HgN/A
7:50 PM
Oct 22
54 °FPassing clouds.5 mph77%30.24 "HgN/A
7:20 PM54 °FPassing clouds.1 mph77%30.24 "HgN/A
6:20 PM54 °FPassing clouds.8 mph77%30.27 "HgN/A
Weather by CustomWeather, © 2014

See weather overviewHow to use our weather pages